Flag for Germany Weather past 2 weeks in Kerpen, North Rhine-Westphalia, Germany

Now
61 °F

Refreshingly cool.


Feels Like: 61 °F
Forecast: 49 / 60 °F
Wind: 5 mph from West

Location: Noervenich

Current Time: May 24, 2015 at 10:07:18 PM

Latest Report: May 24, 2015 at 9:20 PM


Visibility: N/A

Pressure: 30.04 "Hg

Humidity: 59%

Dew point: 46 °F

Location of KerpenLocation

Historic Weather in Kerpen — Graph

°F

Kerpen temperature yesterday

Maximum temperature yesterday: 68 °F (at 2:20 PM)
Minimum temperature yesterday: 50 °F (at 4:20 AM)
Average temperature yesterday: 58 °F

Past Weeks' High & Low Weather Summary

 TemperatureHumidityPressure
High81 °F (May 11, 4:20 PM)100% (May 15, 1:20 AM)30.33 "Hg (May 15, 1:20 AM)
Low39 °F (May 21, 5:20 AM)30% (May 11, 4:20 PM)29.65 "Hg (May 18, 7:20 PM)
Average56 °F67%30.08 "Hg
* Reported May 9 8:20 PM — May 24 8:20 PM, Kerpen, Weather by CustomWeather, © 2015

Note: Actual official high and low records may vary slightly from our data, if they occured in-between our weather recording intervals... More about our weather records

Advertising

Kerpen weather history for previous 24 hours

 ConditionsComfort  
Time TempWeatherWind HumidityBarometerVisibility
8:20 PM
Sun, May 24
66 °FMild.5 mph49%30.04 "HgN/A
7:20 PM66 °FMild.3 mph49%30.04 "Hg6 mi
6:20 PM66 °FMild.6 mph49%30.04 "HgN/A
5:20 PM66 °FMild.3 mph49%30.04 "HgN/A
4:20 PM68 °FMild.5 mph49%30.07 "HgN/A
3:20 PM66 °FMild.6 mph52%30.07 "Hg6 mi
2:20 PM64 °FMild.3 mph56%30.09 "HgN/A
1:20 PM63 °FMild.1 mph59%30.09 "HgN/A
12:20 PM63 °FMild.1 mph59%30.09 "Hg5 mi
11:20 AM59 °FCool.1 mph68%30.12 "Hg6 mi
10:20 AM57 °FCool.1 mph72%30.12 "Hg6 mi
9:20 AM55 °FCool.1 mph72%30.12 "Hg6 mi
8:20 AM52 °FCool.2 mph82%30.12 "Hg5 mi
7:20 AM52 °FCool.2 mph82%30.12 "Hg5 mi
6:20 AM52 °FCool.3 mph77%30.12 "Hg5 mi
5:20 AM52 °FPartly cloudy.3 mph82%30.12 "HgN/A
4:20 AM52 °FPartly cloudy.2 mph82%30.12 "HgN/A
3:20 AM54 °FPassing clouds.3 mph82%30.12 "HgN/A
2:20 AM54 °FPassing clouds.1 mph82%30.12 "HgN/A
1:20 AM55 °FPassing clouds.3 mph77%30.15 "HgN/A
12:20 AM55 °FPartly cloudy.3 mph82%30.15 "HgN/A
11:20 PM
Sat, May 23
55 °FPassing clouds.5 mph82%30.15 "HgN/A
10:20 PM57 °FPartly sunny.6 mph77%30.15 "HgN/A
Weather by CustomWeather, © 2015

See weather overviewHow to use our weather pages